Location: *
(32.1549°S, 82.9708°E)
Time: 19:04:19
(UTC+00:00)

Daily predictions for brighter satellites

Satellite Brightness Start Highest point End
(mag) Time Altitude Azimuth Time Altitude Azimuth Time Altitude Azimuth
USA 229 DEB 4.5 12:23:05 10° S 12:28:24 26° SE 12:33:23 10° ENE
USA 229 4.5 12:23:14 10° S 12:28:31 26° SE 12:33:28 10° ENE
FALCON 9 R/B 2.4 12:29:16 10° W 12:31:25 23° NNW 12:33:20 10° NNE
Helios 1B rocket 3.0 12:28:53 10° SSE 12:32:28 33° E 12:36:01 10° NNE
Cosmos 1315 Rocket 4.5 12:31:58 10° ENE 12:34:07 14° E 12:36:17 10° SE
ASTRO E2 2.5 12:30:42 10° WNW 12:34:16 71° N 12:37:51 10° E
DMSP B5D1-3 4.5 12:29:33 10° NNE 12:34:37 78° ESE 12:39:45 10° S
Meteor 1-31 Rocket 3.4 12:33:21 10° SSE 12:36:43 32° E 12:40:04 10° NNE
ATLAS 5 CENTAUR R/B 3.0 12:32:30 10° SW 12:37:21 43° WNW 12:41:16 10° N
Meteor 1-16 Rocket 4.5 12:34:39 10° S 12:40:32 54° E 12:46:16 10° NNE
Cosmos 1400 Rocket 3.3 12:37:18 10° NNW 12:41:16 64° W 12:45:15 10° S
SeaSat 1 2.5 12:36:54 10° SSE 12:41:47 58° ENE 12:46:37 10° NNW
Okean 2 3.3 12:38:58 10° N 12:42:56 71° E 12:46:58 10° S
CZ-2C R/B 2.5 12:43:59 10° SSE 12:47:33 62° E 12:51:07 10° N
SEDSat Delta rocket 2.9 12:53:14 10° WNW 12:57:15 63° NNE 13:00:18 17° E
ISS -3.3 12:54:41 10° NNW 12:57:56 45° NE 13:00:16 17° ESE
Cosmos 1782 Rocket 4.5 12:55:25 10° SSE 12:59:07 26° ESE 13:02:46 10° NE
SMAP 3.7 12:56:52 10° S 13:01:32 62° WSW 13:06:08 10° NNW
Cosmos 2285 Rocket 4.0 12:55:19 10° N 13:01:42 79° ENE 13:08:12 10° SSE
Cosmos 1346 Rocket 3.0 12:58:39 10° S 13:02:27 43° E 13:06:10 10° NNE
Cosmos 1908 Rocket 3.5 13:01:39 10° S 13:06:04 69° E 13:10:23 10° NNE
ATLAS 3B R/B 3.2 13:00:28 10° SW 13:06:35 56° WNW 13:12:51 10° NNE
AQUARIUS 4.5 13:03:07 10° S 13:07:38 71° WSW 13:12:04 10° NNW
USA 305 2.9 13:16:59 10° NNW 13:18:56 27° NNE 13:18:56 27° NNE
Cosmos 1992 Rocket 4.0 13:14:39 10° SSW 13:19:54 84° WNW 13:25:06 10° NNE
Shi Jian 4 4.4 13:18:16 10° WNW 13:20:39 50° N 13:22:07 29° ENE
Delta 2 Rocket 3.5 13:17:40 10° W 13:21:21 54° S 13:23:05 30° ESE
CZ-4B R/B 4.0 13:20:27 10° SSE 13:25:23 39° E 13:30:12 10° NNE
Cosmos 1140 Rocket 3.4 13:20:22 10° NNW 13:25:32 85° ENE 13:30:46 10° SSE
USA 307 3.0 13:22:50 10° NNW 13:25:03 30° NNE 13:25:03 30° NNE
Cosmos 1300 Rocket 3.8 13:22:23 10° S 13:26:33 43° E 13:29:11 20° NE
IGS 5A 3.4 13:22:41 10° SSE 13:26:45 55° E 13:30:46 10° N
Cosmos 2242 Rocket 3.5 13:23:12 10° N 13:27:39 68° E 13:32:14 10° SSE
Cosmos 1174 3.4 13:26:30 10° NNW 13:29:45 66° WSW 13:31:12 27° SSE
Lacrosse 5 rocket 3.0 13:27:13 10° N 13:28:19 16° NNE 13:28:19 16° NNE
Cosmos 2098 Rocket 4.3 13:26:01 10° S 13:32:27 46° E 13:38:41 10° NNE
Cosmos 1656 4.2 13:28:28 10° S 13:33:47 38° ESE 13:35:00 34° E
Cosmos 407 Rocket 3.3 13:31:06 10° N 13:36:13 70° ENE 13:41:21 10° SSE
Atlas 2A Centaur Rocket 4.4 12:59:20 10° W 13:37:14 59° NNW 13:41:50 23° NE
Cosmos 1953 3.1 13:33:46 10° SSW 13:37:36 50° W 13:41:20 10° N
Cosmos 1455 2.1 13:34:32 10° S 13:38:07 74° W 13:41:41 10° N
H-II Stage 2 4.3 13:01:13 10° W 13:48:22 61° NNW 13:52:10 28° NE
Cosmos 1833 Rocket 2.6 13:44:37 10° NNW 13:50:15 85° ENE 13:55:55 10° SSE
USA 215 3.6 13:53:01 40° ESE 13:54:31 46° SE 14:00:45 10° SSW
Meteor 1-4 Rocket 4.0 13:56:46 10° NNW 13:58:34 27° NW 13:58:34 27° NW
Cosmos 1066 4.5 13:58:16 10° N 14:03:43 78° E 14:09:16 10° S
ADEOS Rocket 3.0 14:02:23 10° SSE 14:09:23 87° ENE 14:15:34 10° NNW
ASTRO E2 4.3 14:09:28 10° W 14:11:26 30° W 14:11:26 30° W
Meteor 2-5 Rocket 3.8 14:07:24 10° N 14:13:22 84° W 14:19:20 10° S
Cosmos 2251 Rocket 4.3 14:09:41 10° NNW 14:14:52 51° WSW 14:20:09 10° S
Cosmos 2184 Rocket 4.4 14:08:54 10° NNW 14:15:09 63° W 14:21:33 10° S
Cosmos 2154 Rocket 4.0 14:10:38 10° N 14:16:52 78° W 14:23:13 10° S
USA 229 DEB 4.3 14:13:30 10° SW 14:19:27 45° WNW 14:23:07 21° N
USA 229 4.3 14:13:38 10° SW 14:19:36 46° WNW 14:23:10 22° N
Cosmos 1610 Rocket 4.4 14:14:16 10° N 14:20:40 88° E 14:27:09 10° S
YAOGAN 1 4.3 14:23:22 25° NW 14:23:22 25° NW 14:25:16 10° NNW
Cosmos 44 4.3 14:24:47 10° SW 14:29:25 44° WNW 14:29:37 44° WNW
Cosmos 1697 Rocket 4.4 14:25:29 10° S 14:27:24 21° S 14:27:24 21° S
Meteor 1-24 Rocket 4.4 14:28:23 10° NNW 14:34:10 54° W 14:39:50 10° S
ISS -0.4 14:32:35 10° WSW 14:33:13 13° WSW 14:33:13 13° WSW
NOSS 3-2 (A) 4.3 21:58:46 66° S 21:58:46 66° S 22:05:44 10° SSE
CZ-4C R/B 4.4 22:11:32 22° SSW 22:11:32 22° SSW 22:14:41 10° S
Cosmos 1975 4.4 22:35:17 34° E 22:35:25 34° E 22:39:04 10° SSE
CENTAUR R/B 3.9 22:40:11 30° SSW 22:40:11 30° SSW 22:45:05 10° S
GEOS 3 Rocket 3.8 22:36:52 10° SE 22:42:10 72° ENE 22:43:13 55° N
Meteor 2-9 Rocket 4.3 22:43:55 62° SSW 22:43:55 62° SSW 22:49:00 10° S
Cosmos 1666 Rocket 4.4 22:41:53 23° NNE 22:44:18 49° E 22:48:32 10° SSE
Milstar 3 Cent rocket 4.1 22:40:02 27° NW 22:45:13 41° NNE 22:51:27 10° E
SL-16 R/B 3.5 22:39:58 10° S 22:43:31 31° SSW 22:43:31 31° SSW
IRS-P3 4.3 22:41:30 10° NNE 22:46:49 71° ESE 22:52:11 10° S
Cosmos 2228 Rocket 4.2 22:47:47 10° S 22:52:13 45° E 22:56:34 10° NNE
FengYun 1-2 T 4.1 22:51:09 10° NNE 22:56:40 88° W 23:02:14 10° SSW
Cosmos 2278 Rocket 3.8 22:57:25 10° NNE 23:02:30 35° ENE 23:07:38 10° SE
Cosmos 614 Rocket 3.8 23:03:33 60° W 23:03:40 61° WNW 23:08:38 10° N
Cosmos 1553 Rocket 3.9 22:58:05 10° N 23:04:11 87° E 23:10:20 10° S
Hubble Space Telescope 3.3 23:06:29 11° N 23:08:06 13° NNE 23:10:01 10° NE
NOSS 3-2 (C) 4.3 23:05:14 30° WNW 23:09:49 57° WSW 23:17:54 10° SSE
In-Cosmos 22 4.1 23:09:11 10° SSW 23:14:21 52° W 23:19:28 10° N
Nadezhda 2 Rocket 4.5 23:08:29 10° S 23:14:50 86° E 23:21:01 10° N
BREEZE-M DEB (TANK) 4.3 23:17:27 32° SSW 23:17:27 32° SSW 23:19:43 10° SSE
Cosmos 192 4.4 23:13:18 10° N 23:18:14 78° ENE 23:23:14 10° SSE
ARIANE 5 R/B 2.7 23:13:39 10° N 23:18:35 45° W 23:23:31 10° SSW
ARGOS 3.2 23:14:50 10° N 23:20:02 52° W 23:25:19 10° SSW
Cosmos 1633 Rocket 2.9 23:18:17 10° NNW 23:22:40 68° W 23:27:07 10° S
Lacrosse 5 rocket 1.7 23:27:50 38° W 23:28:51 45° WNW 23:33:00 10° NNE
Meteor 1-23 Rocket 4.3 23:23:35 10° SSW 23:29:19 56° W 23:34:56 10° N
Spot 4 Rocket 4.1 23:24:49 10° NNE 23:29:57 81° ESE 23:35:09 10° S
Cosmos 1269 Rocket 4.0 23:28:26 10° SSW 23:33:42 59° WNW 23:38:53 10° N
Cosmos 220 Rocket 3.9 23:30:19 12° SSW 23:34:03 56° WNW 23:38:07 10° N
OAO 3 Rocket 3.5 23:32:33 23° NW 23:35:22 61° NNE 23:40:00 10° ESE
Meteor 1-21 4.2 23:30:13 10° S 23:36:04 84° W 23:41:46 10° N
DELTA 2 R/B (1) 4.4 23:34:01 22° WSW 23:37:03 38° S 23:42:15 10° ESE
CZ-2D R/B 3.9 23:33:56 10° N 23:38:01 42° W 23:42:12 10° SSW
DMSP B5D2-2 4.2 23:38:56 10° S 23:44:04 51° WSW 23:49:06 10° NNW
PSLV R/B 3.3 23:40:57 10° N 23:45:04 76° WNW 23:49:15 10° SSW
SeaSat 1 2.5 23:42:50 10° N 23:47:40 57° WNW 23:52:34 10° SSW
BREEZE M DEB (TANK) 4.4 23:51:09 10° SSW 23:52:57 13° S 23:55:29 10° SSE
SL-4 R/B 1.8 23:50:20 13° NW 23:53:45 77° SW 23:57:54 10° SE
